Norse Mersey — IBEN — position and weather

sailwx.info

Track history (hours):
 
Tides and Currents Weather Stations Pressure Air Temp Water Temp Dewpoint Dewpoint Depression Visibility Wind Speed Wind Dir Waves Ship Positions

Norse Mersey

Operator: Norse Merchant Ferries

Last reported at 2020-Jan-24 20:30 UTC. Time now 2020-Jan-25 05:14 UTC.
Position N 39°10' E 009°07'.

Length 175 m; draft 5.7 m.

Type: Ship (hazmat cat A). MMSI: 247026000.

Date/timePositionNaut miles runAvg speedWind from/ knotsBaromVisibWave heightAir tempDewpointWater temp
2020-Jan-24 20:30N 39°10' E 009°07'4 8.2
2020-Jan-24 20:00N 39°08' E 009°11'612.0
2020-Jan-24 19:30N 39°05' E 009°18'16412.8
2020-Jan-24 06:40N 41°47' E 009°53'9515.4
2020-Jan-24 00:31N 43°21' E 010°08'1313.4
2020-Jan-23 23:30N 43°33' E 010°17'2 1.4
2020-Jan-23 21:58N 43°35' E 010°19'4 0.7
2020-Jan-23 16:30N 43°31' E 010°16'1111.0
2020-Jan-23 15:30N 43°21' E 010°10'2315.6
2020-Jan-23 14:00N 42°58' E 010°03'6815.7
2020-Jan-23 09:39N 41°50' E 009°56'106 2.4
2020-Jan-21 13:00N 43°35' E 010°19'0 0.0
2020-Jan-21 11:30N 43°35' E 010°19'0 0.0
2020-Jan-21 10:30N 43°35' E 010°19'24 3.7
2020-Jan-21 04:00N 43°11' E 010°19'25011.2
2020-Jan-20 05:34N 39°04' E 009°21'113.2
2020-Jan-20 05:30N 39°05' E 009°20'713.2
2020-Jan-20 05:01N 39°08' E 009°12'7 1.9
2020-Jan-20 01:23N 39°13' E 009°06'6 1.3
2020-Jan-19 21:00N 39°08' E 009°11'227 7.8
2020-Jan-18 16:01N 40°49' E 013°36'714.8
2020-Jan-18 15:30N 40°44' E 013°43'714.9
2020-Jan-18 15:00N 40°39' E 013°51'2214.5
2020-Jan-18 13:30N 40°31' E 014°17'19 2.6
2020-Jan-18 06:09N 40°37' E 014°41'215.0
2020-Jan-18 06:00N 40°35' E 014°39'3015.0
2020-Jan-18 04:00N 40°23' E 014°02'23514.2
2020-Jan-17 11:29N 39°07' E 009°14'8 1.2
2020-Jan-17 04:38N 39°13' E 009°06'0 1.6
2020-Jan-17 04:31N 39°12' E 009°06'2 4.7
2020-Jan-17 04:00N 39°10' E 009°07'24213.1
2020-Jan-16 09:30N 43°08' E 010°04'1515.0
2020-Jan-16 08:30N 43°22' E 010°10'14 3.5
2020-Jan-16 04:28N 43°35' E 010°19'0 0.0
2020-Jan-16 03:58N 43°35' E 010°19'0 0.0
2020-Jan-16 02:58N 43°35' E 010°19'0 0.0
2020-Jan-16 02:28N 43°35' E 010°19'1 1.2
2020-Jan-16 01:30N 43°34' E 010°18'2412.0
2020-Jan-15 23:30N 43°11' E 010°07'8515.0
2020-Jan-15 17:50N 41°47' E 009°55'16412.8
2020-Jan-15 05:01N 39°06' E 009°15'10 6.3
2020-Jan-15 03:25N 39°13' E 009°06'0 0.0
2020-Jan-15 02:19N 39°13' E 009°06'0 0.0
2020-Jan-15 01:22N 39°13' E 009°06'0 0.0
2020-Jan-14 23:49N 39°13' E 009°06'5 2.3
2020-Jan-14 21:30N 39°08' E 009°10'714.8
2020-Jan-14 21:00N 39°04' E 009°18'  
Track history (hours):
 
Tides and Currents Weather Stations Pressure Air Temp Water Temp Dewpoint Dewpoint Depression Visibility Wind Speed Wind Dir Waves Ship Positions

Norse Mersey

Operator: Norse Merchant Ferries

Last reported at 2020-Jan-24 20:30 UTC. Time now 2020-Jan-25 05:15 UTC.
Position N 39°10' E 009°07'.

Length 175 m; draft 5.7 m.

Type: Ship (hazmat cat A). MMSI: 247026000.

Date/timePositionNaut miles runAvg speedWind from/ knotsBaromVisibWave heightAir tempDewpointWater temp
2020-Jan-24 20:30N 39°10' E 009°07'4 8.2
2020-Jan-24 20:00N 39°08' E 009°11'612.0
2020-Jan-24 19:30N 39°05' E 009°18'16412.8
2020-Jan-24 06:40N 41°47' E 009°53'9515.4
2020-Jan-24 00:31N 43°21' E 010°08'1313.4
2020-Jan-23 23:30N 43°33' E 010°17'2 1.4
2020-Jan-23 21:58N 43°35' E 010°19'4 0.7
2020-Jan-23 16:30N 43°31' E 010°16'1111.0
2020-Jan-23 15:30N 43°21' E 010°10'2315.6
2020-Jan-23 14:00N 42°58' E 010°03'6815.7
2020-Jan-23 09:39N 41°50' E 009°56'106 2.4
2020-Jan-21 13:00N 43°35' E 010°19'0 0.0
2020-Jan-21 11:30N 43°35' E 010°19'0 0.0
2020-Jan-21 10:30N 43°35' E 010°19'24 3.7
2020-Jan-21 04:00N 43°11' E 010°19'25011.2
2020-Jan-20 05:34N 39°04' E 009°21'113.2
2020-Jan-20 05:30N 39°05' E 009°20'713.2
2020-Jan-20 05:01N 39°08' E 009°12'7 1.9
2020-Jan-20 01:23N 39°13' E 009°06'6 1.3
2020-Jan-19 21:00N 39°08' E 009°11'227 7.8
2020-Jan-18 16:01N 40°49' E 013°36'714.8
2020-Jan-18 15:30N 40°44' E 013°43'714.9
2020-Jan-18 15:00N 40°39' E 013°51'2214.5
2020-Jan-18 13:30N 40°31' E 014°17'19 2.6
2020-Jan-18 06:09N 40°37' E 014°41'215.0
2020-Jan-18 06:00N 40°35' E 014°39'3015.0
2020-Jan-18 04:00N 40°23' E 014°02'23514.2
2020-Jan-17 11:29N 39°07' E 009°14'8 1.2
2020-Jan-17 04:38N 39°13' E 009°06'0 1.6
2020-Jan-17 04:31N 39°12' E 009°06'2 4.7
2020-Jan-17 04:00N 39°10' E 009°07'24213.1
2020-Jan-16 09:30N 43°08' E 010°04'1515.0
2020-Jan-16 08:30N 43°22' E 010°10'14 3.5
2020-Jan-16 04:28N 43°35' E 010°19'0 0.0
2020-Jan-16 03:58N 43°35' E 010°19'0 0.0
2020-Jan-16 02:58N 43°35' E 010°19'0 0.0
2020-Jan-16 02:28N 43°35' E 010°19'1 1.2
2020-Jan-16 01:30N 43°34' E 010°18'2412.0
2020-Jan-15 23:30N 43°11' E 010°07'8515.0
2020-Jan-15 17:50N 41°47' E 009°55'16412.8
2020-Jan-15 05:01N 39°06' E 009°15'10 6.3
2020-Jan-15 03:25N 39°13' E 009°06'0 0.0
2020-Jan-15 02:19N 39°13' E 009°06'0 0.0
2020-Jan-15 01:22N 39°13' E 009°06'0 0.0
2020-Jan-14 23:49N 39°13' E 009°06'5 2.3
2020-Jan-14 21:30N 39°08' E 009°10'714.8
2020-Jan-14 21:00N 39°04' E 009°18'  

Dump ship's entire track history